Glacier Park International Airport
KGPI : now visible

Airfield :











YOU CAN JOIN US ON...

 
LOGIN :

Register | Disclaimer

   EN    FR    IT 

 









Legend :    VFR   Marginal VFR   IFR   Intensive IFR   Very Intensive IFR
Visi :
Ceiling :
>= 8 km
>= 3000ft
5 to 8 km
1000 to 3000 ft
1500m to 5 km
500 to 1000 ft
800 to 1500m
200 to 500 ft
< 800m
< 200 ft
Symbols :   Thunderstorms  Fog  Heavy snow  Heavy precipitations  Wind > 20 kt






- Airport Elevation : 2977 ft
- IATA code : FCA


KGPI - Glacier Park International

CURRENT METAR :
  • 220255Z 02011KT 10SM BKN075 M02/M07 A3013 RMK AO2 SLP232 T10171072 51031

EXPIRED METARs :
  • 220155Z 01013KT 10SM FEW070 M01/M07 A3010 RMK AO2 SLP222 T10061067
  • 220055Z 01012KT 10SM SCT070 M01/M06 A3007 RMK AO2 SLP209 T10061061

TAF KGPI
Valid from the 22 at 00:00 until the 23 at 00:00 UTC


212328Z 2200/2224 01012G20KT P6SM VCSH SCT250
FM220500 01010G20KT P6SM OVC050
FM221000 02010KT P6SM BKN050
KZLC FIR / North America



MET'MAP, your aeronautical weather chart ! - Copyright ORBIFLY December 2007 - Disclaimer

ORBIFLY MET'MAP TEAM :

Programming & Development : Alexandra Zaïnal
Concept & original design : Baudouin d'Aumeries
Assistance for programming : Marc-Olivier Méhu
Technical & hardware support : Manuel Goepfert

Contact : metmap@orbifly.com




SOURCES & CREDITS :

   NOAA       Earth
Advisory